This demonstration page uses our WeatherBlox Daily Observations layout. Learn more.

Left ArrowRight Arrow

44.89941, -97.11507

Hourly Observations for January 2, 2016

Temp ( °F °C ) Dew Point ( °F °C ) Humidity (%) Winds ( mph kmh ) Pressure ( in mb ) Visibility ( mi km ) Precip ( " mm )
12:53 am 00:53 Clear 12 -11.1 9 -12.8 87 87 W 6 9 30.20 1023 10 16 0.00 0.00
1:53 am 01:53 Clear 9 -12.8 6 -14.4 88 88 WSW 3 6 30.20 1023 10 16 0.00 0.00
2:53 am 02:53 Clear 12 -11.1 9 -12.8 87 87 WSW 3 6 30.19 1022 10 16 0.00 0.00
3:53 am 03:53 Clear 13 -10.6 9 -12.8 84 84 W 12 19 30.16 1021 10 16 0.00 0.00
4:53 am 04:53 Clear 14 -10 10 -12.2 84 84 WSW 9 15 30.15 1021 10 16 0.00 0.00
5:53 am 05:53 Clear 15 -9.4 11 -11.7 84 84 W 10 17 30.15 1021 10 16 0.00 0.00
6:53 am 06:53 Clear 19 -7.2 13 -10.6 77 77 WSW 13 20 30.13 1020 10 16 0.00 0.00
7:53 am 07:53 Clear 15 -9.4 9 -12.8 77 77 SW 9 15 30.13 1020 10 16 0.00 0.00
8:53 am 08:53 Sunny 16 -8.9 10 -12.2 77 77 W 8 13 30.13 1020 10 16 0.00 0.00
9:53 am 09:53 Sunny 22 -5.6 13 -10.6 68 68 NW 8 13 30.14 1021 10 16 0.00 0.00
10:53 am 10:53 Sunny 25 -3.9 14 -10 63 63 WNW 13 20 30.13 1020 10 16 0.00 0.00
11:53 am 11:53 Sunny 26 -3.3 15 -9.4 63 63 NW 9 15 30.13 1020 10 16 0.00 0.00
12:53 pm 12:53 Sunny 27 -2.8 17 -8.3 66 66 NW 10 17 30.11 1020 10 16 0.00 0.00
1:53 pm 13:53 Sunny 29 -1.7 18 -7.8 63 63 WNW 12 19 30.11 1020 10 16 0.00 0.00
2:53 pm 14:53 Sunny 30 -1.1 19 -7.2 64 64 NW 14 22 30.11 1020 10 16 0.00 0.00
3:53 pm 15:53 Sunny 29 -1.7 19 -7.2 66 66 WNW 10 17 30.14 1021 10 16 0.00 0.00
4:53 pm 16:53 Sunny 27 -2.8 19 -7.2 72 72 WNW 12 19 30.16 1021 10 16 0.00 0.00
5:53 pm 17:53 Clear 26 -3.3 19 -7.2 75 75 NW 8 13 30.16 1022 10 16 0.00 0.00
6:53 pm 18:53 Clear 25 -3.9 18 -7.8 75 75 NW 13 20 30.17 1022 10 16 0.00 0.00
7:53 pm 19:53 Clear 23 -5 17 -8.3 78 78 NW 14 22 30.20 1023 10 16 0.00 0.00
8:53 pm 20:53 Clear 24 -4.4 18 -7.8 77 77 NNW 14 22 30.21 1023 10 16 0.00 0.00
9:53 pm 21:53 Clear 21 -6.1 16 -8.9 81 81 NW 8 13 30.23 1024 10 16 0.00 0.00
10:53 pm 22:53 Clear 20 -6.7 15 -9.4 81 81 NW 10 17 30.24 1024 10 16 0.00 0.00
11:53 pm 23:53 Clear 18 -7.8 14 -10 84 84 NNW 10 17 30.26 1025 10 16 0.00 0.00

Powered by AerisWeather